| time (UTC) | temp C | wind direction | speed KPH | gust KPH | rain 1hr cm | rain 24hr cm | rain mn cm | humidity % | barometer mb |
| 20260503021618 | 3 | 228 | 8.0 | 0.0 | 0.00 | 0.00 | 0.00 | 66 | 988.7 |
| 20260503020148 | 3 | 232 | 8.0 | 0.0 | 0.00 | 0.00 | 0.00 | 66 | 988.7 |
| 20260503014618 | 4 | 241 | 8.0 | 0.0 | 0.00 | 0.00 | 0.00 | 62 | 988.2 |
| 20260503013136 | 4 | 244 | 8.0 | 0.0 | 0.00 | 0.00 | 0.00 | 62 | 988.2 |
| 20260503011618 | 5 | 239 | 8.0 | 0.0 | 0.00 | 0.00 | 0.00 | 62 | 988.2 |
| 20260503010148 | 5 | 243 | 8.0 | 0.0 | 0.00 | 0.00 | 0.00 | 62 | 988.2 |
| 20260503004617 | 5 | 242 | 8.0 | 0.0 | 0.00 | 0.00 | 0.00 | 51 | 989.0 |
| 20260503003131 | 6 | 241 | 8.0 | 0.0 | 0.00 | 0.00 | 0.00 | 51 | 989.2 |
| 20260503001618 | 6 | 243 | 4.8 | 0.0 | 0.00 | 0.00 | 0.00 | 51 | 989.2 |
| 20260503000153 | 6 | 260 | 4.8 | 0.0 | 0.00 | 0.00 | 0.00 | 51 | 989.2 |
| 20260502234620 | 7 | 278 | 6.4 | 0.0 | 0.00 | 0.00 | 0.00 | 41 | 989.1 |
| 20260502233131 | 7 | 274 | 9.7 | 0.0 | 0.00 | 0.00 | 0.00 | 42 | 989.1 |
| 20260502231619 | 7 | 275 | 11.3 | 0.0 | 0.00 | 0.00 | 0.00 | 42 | 989.1 |
| 20260502230146 | 7 | 276 | 12.9 | 0.0 | 0.00 | 0.00 | 0.00 | 42 | 989.1 |
| 20260502224619 | 7 | 278 | 14.5 | 0.0 | 0.00 | 0.00 | 0.00 | 44 | 989.4 |
| 20260502223137 | 8 | 276 | 16.1 | 0.0 | 0.00 | 0.00 | 0.00 | 41 | 990.2 |
| 20260502221619 | 8 | 276 | 16.1 | 0.0 | 0.00 | 0.00 | 0.00 | 41 | 990.2 |
| 20260502220146 | 8 | 276 | 17.7 | 0.0 | 0.00 | 0.00 | 0.00 | 41 | 990.2 |
| 20260502214619 | 8 | 277 | 17.7 | 0.0 | 0.00 | 0.00 | 0.00 | 43 | 990.2 |
| 20260502213137 | 8 | 276 | 16.1 | 0.0 | 0.00 | 0.00 | 0.00 | 43 | 989.9 |
| 20260502211619 | 8 | 274 | 16.1 | 0.0 | 0.00 | 0.00 | 0.00 | 43 | 989.9 |
| 20260502210148 | 8 | 272 | 16.1 | 0.0 | 0.00 | 0.00 | 0.00 | 43 | 989.9 |
| 20260502204618 | 8 | 271 | 16.1 | 0.0 | 0.00 | 0.00 | 0.00 | 39 | 990.3 |
| 20260502203137 | 8 | 270 | 16.1 | 0.0 | 0.00 | 0.00 | 0.00 | 39 | 990.8 |
| 20260502201619 | 8 | 272 | 16.1 | 0.0 | 0.00 | 0.00 | 0.00 | 39 | 990.8 |
| 20260502200146 | 8 | 271 | 17.7 | 0.0 | 0.00 | 0.00 | 0.00 | 39 | 990.8 |
| 20260502194619 | 8 | 271 | 17.7 | 0.0 | 0.00 | 0.00 | 0.00 | 40 | 990.9 |
| 20260502193132 | 8 | 273 | 17.7 | 0.0 | 0.00 | 0.00 | 0.00 | 40 | 990.9 |
| 20260502191619 | 8 | 276 | 17.7 | 0.0 | 0.00 | 0.00 | 0.00 | 40 | 991.0 |
| 20260502190147 | 8 | 276 | 17.7 | 0.0 | 0.00 | 0.00 | 0.00 | 40 | 991.0 |
| 20260502185128 | 7 | 278 | 17.7 | 0.0 | 0.00 | 0.00 | 0.00 | 45 | 990.9 |
| 20260502183138 | 7 | 280 | 17.7 | 0.0 | 0.00 | 0.00 | 0.00 | 46 | 990.9 |
| 20260502181618 | 7 | 281 | 17.7 | 0.0 | 0.00 | 0.00 | 0.00 | 46 | 990.9 |
| 20260502180154 | 7 | 282 | 17.7 | 0.0 | 0.00 | 0.00 | 0.00 | 46 | 990.9 |
| 20260502170143 | 7 | 277 | 14.5 | 0.0 | 0.00 | 0.00 | 0.00 | 43 | 991.4 |
| 20260502163139 | 7 | 276 | 12.9 | 0.0 | 0.00 | 0.00 | 0.00 | 44 | 990.5 |
| 20260502161618 | 7 | 279 | 12.9 | 0.0 | 0.00 | 0.00 | 0.00 | 44 | 990.5 |
| 20260502160149 | 6 | 280 | 11.3 | 0.0 | 0.00 | 0.00 | 0.00 | 44 | 990.5 |
| 20260502151619 | 6 | 285 | 9.7 | 0.0 | 0.00 | 0.00 | 0.00 | 51 | 990.6 |
| 20260502150152 | 5 | 287 | 9.7 | 0.0 | 0.00 | 0.00 | 0.00 | 51 | 990.6 |
| 20260502130147 | 2 | 337 | 8.0 | 0.0 | 0.00 | 0.00 | 0.00 | 73 | 991.0 |
| 20260502123136 | 1 | 329 | 6.4 | 0.0 | 0.00 | 0.00 | 0.00 | 78 | 991.0 |
| 20260502121619 | 1 | 330 | 6.4 | 0.0 | 0.00 | 0.00 | 0.00 | 78 | 991.0 |
| 20260502120203 | 1 | 323 | 6.4 | 0.0 | 0.00 | 0.00 | 0.00 | 78 | 991.0 |
| 20260502114619 | 0 | 313 | 4.8 | 0.0 | 0.00 | 0.00 | 0.00 | 87 | 990.8 |
| 20260502113140 | 0 | 270 | 1.6 | 0.0 | 0.00 | 0.00 | 0.00 | 88 | 990.8 |
| 20260502111619 | 0 | 225 | 1.6 | 0.0 | 0.00 | 0.00 | 0.00 | 88 | 990.8 |
| 20260502110148 | 0 | 240 | 1.6 | 0.0 | 0.00 | 0.00 | 0.00 | 88 | 990.8 |
| 20260502104618 | 0 | 238 | 3.2 | 0.0 | 0.00 | 0.00 | 0.00 | 86 | 990.6 |
| 20260502103137 | 0 | 219 | 1.6 | 0.0 | 0.00 | 0.00 | 0.00 | 87 | 990.9 |
| 20260502101618 | 0 | 198 | 1.6 | 0.0 | 0.00 | 0.00 | 0.00 | 87 | 990.9 |
| 20260502100148 | 0 | 233 | 1.6 | 0.0 | 0.00 | 0.00 | 0.00 | 87 | 990.9 |
| 20260502090148 | 0 | 310 | 4.8 | 0.0 | 0.00 | 0.00 | 0.00 | 85 | 990.4 |
| 20260502070149 | 0 | 311 | 6.4 | 0.0 | 0.00 | 0.00 | 0.00 | 77 | 989.5 |
| 20260502064618 | 0 | 311 | 6.4 | 0.0 | 0.00 | 0.00 | 0.00 | 74 | 990.7 |
| 20260502063138 | 0 | 304 | 6.4 | 0.0 | 0.00 | 0.00 | 0.00 | 75 | 990.7 |
| 20260502061618 | 0 | 302 | 8.0 | 0.0 | 0.00 | 0.00 | 0.00 | 75 | 990.6 |
| 20260502060205 | 0 | 306 | 8.0 | 0.0 | 0.00 | 0.00 | 0.00 | 75 | 990.6 |
| 20260502054618 | 0 | 317 | 8.0 | 0.0 | 0.00 | 0.00 | 0.00 | 72 | 989.8 |
| 20260502053137 | 0 | 318 | 8.0 | 0.0 | 0.00 | 0.00 | 0.00 | 73 | 990.2 |
| 20260502051617 | 0 | 320 | 9.7 | 0.0 | 0.00 | 0.00 | 0.00 | 73 | 990.2 |
| 20260502050149 | 1 | 324 | 11.3 | 0.0 | 0.00 | 0.00 | 0.00 | 73 | 990.2 |
| 20260502044619 | 1 | 323 | 11.3 | 0.0 | 0.00 | 0.00 | 0.00 | 70 | 989.7 |
| 20260502043136 | 1 | 331 | 11.3 | 0.0 | 0.00 | 0.00 | 0.00 | 71 | 989.9 |
| 20260502041618 | 1 | 329 | 11.3 | 0.0 | 0.00 | 0.00 | 0.00 | 71 | 989.9 |
| 20260502040150 | 1 | 325 | 12.9 | 0.0 | 0.00 | 0.00 | 0.00 | 71 | 989.9 |
| 20260502034618 | 1 | 321 | 12.9 | 0.0 | 0.00 | 0.00 | 0.00 | 64 | 989.2 |
| 20260502033138 | 1 | 326 | 9.7 | 0.0 | 0.00 | 0.00 | 0.00 | 68 | 988.9 |
| 20260502031617 | 1 | 324 | 9.7 | 0.0 | 0.00 | 0.00 | 0.00 | 68 | 988.9 |
| 20260502030148 | 1 | 323 | 11.3 | 0.0 | 0.00 | 0.00 | 0.00 | 68 | 988.9 |
| 20260502024616 | 1 | 316 | 11.3 | 0.0 | 0.00 | 0.00 | 0.00 | 64 | 988.2 |
| 20260502023135 | 1 | 314 | 11.3 | 0.0 | 0.00 | 0.00 | 0.00 | 68 | 989.3 |